Regional Weather Roundup
Issued by NWS

Home | Current Version | Previous Version | Text Only | Print | Product List | Glossary Off
Versions: 1 2 3 4 5 6 7 8 9 10 11 12 13 14 15 16 17 18 19 20 21 22 23 24 25 26 27 28 29 30 31 32 33 34 35 36 37 38 39 40 41 42 43 44 45 46 47 48 49 50

000
ASUS43 KLOT 270008
RWRIL

ILLINOIS REGIONAL WEATHER ROUNDUP
NATIONAL WEATHER SERVICE CHICAGO/ROMEOVILLE IL
600 PM CST SUN FEB 26 2017

NOTE: "FAIR" INDICATES FEW OR NO CLOUDS BELOW 12,000 FEET WITH NO
SIGNIFICANT WEATHER AND/OR OBSTRUCTIONS TO VISIBILITY.

* THESE STATIONS ARE NOT UNDER NWS QUALITY CONTROL. THEY ALSO MAY NOT
  REPORT WEATHER SUCH AS PRECIPITATION OR FOG.

ILZ001-002-007-009-015-016-024-270100-
NORTHWEST ILLINOIS

CITY           SKY/WX    TMP DP  RH WIND       PRES   REMARKS
MOLINE         CLOUDY    46  27  47 SW12      29.96R
6HR MIN TEMP:  45; 6HR MAX TEMP:  52; 6HR PCP: TRACE;

STERLING*      MOCLDY    43  32  65 SW5       29.96R
$$

ILZ003-004-008-010-011-017-018-270100-
NORTH CENTRAL ILLINOIS

CITY           SKY/WX    TMP DP  RH WIND       PRES   REMARKS
ROCKFORD       PTCLDY    44  24  45 SW7       29.95R
6HR MIN TEMP:  41; 6HR MAX TEMP:  49;

FREEPORT*      CLEAR     40  25  55 SW7       29.94R
ROCHELLE*      CLOUDY    40  32  71 SW15      29.95S
DE KALB*       CLOUDY    41  31  67 SW16G24   29.96R
PERU*          CLOUDY    43  29  58 W16       30.00R
$$

ILZ005-006-012>014-019>023-270100-
NORTHEAST ILLINOIS

CITY           SKY/WX    TMP DP  RH WIND       PRES   REMARKS
CHICAGO-OHARE  MOCLDY    46  21  37 SW13G20   29.95R
6HR MIN TEMP:  43; 6HR MAX TEMP:  49;

CHICAGO-MIDWAY MOCLDY    46  20  35 SW9       29.97R
6HR MIN TEMP:  44; 6HR MAX TEMP:  49;

AURORA         CLOUDY    43  29  57 W17       29.97R
6HR MIN TEMP:  43; 6HR MAX TEMP:  49;

LANSING*       PTCLDY    43  27  52 SW9       29.99R
JOLIET*        CLOUDY    47  24  40 SW5       29.98R
WAUKEGAN       CLEAR     40  24  53 SW7       29.93R
6HR MIN TEMP:  40; 6HR MAX TEMP:  46;

DUPAGE AIRPORT CLOUDY    45  23  42 SW14      29.96R
6HR MIN TEMP:  42; 6HR MAX TEMP:  48;

KANKAKEE*      CLEAR     42  20  42 SW16G25   30.03R
WHEELING       CLOUDY    45  21  38 SW8G17    29.96R
6HR MIN TEMP:  41; 6HR MAX TEMP:  47;

MORRIS*        CLOUDY    45  24  45 SW6       29.98R
ROMEOVILLE*    CLOUDY    44  28  52 W9        29.98R
NORTHERLY ISL    N/A     46  18  32 S9          N/A
$$

LMZ740>746-270100-
SOUTHERN LAKE MICHIGAN

STATION/POSITION SKY/WX   TEMP    WIND        PRES    VSBY  WAVE
                          AIR SEA DIR/SP/G                  HT/PER
                          (F)     (DEG/KT/KT) (MB)    (MI)  (FT/S)
HARRISON CRIB              47     210/ 19/ 22   N/A
BURNHAM HARBOR             46     240/  4/ 15   N/A
CALUMET HARBOR             46     210/  7/ 10 1014.5R
BURNS HARBOR               46     210/ 12/ 16 1015.9R
MICHIGAN CITY              46     190/ 17/ 20   N/A
$$

ILZ025>027-034>036-040-047-049-050-058-095>099-270100-
WEST-CENTRAL ILLINOIS

CITY           SKY/WX    TMP DP  RH WIND       PRES   REMARKS
QUINCY         PTCLDY    43  22  43 S9        30.01R
GALESBURG*     MOCLDY    42  31  64 SW14      29.98R
MACOMB*        CLEAR     45  27  49 SW15      30.01S
JACKSONVILLE*  PTCLDY    42  21  42 S8        30.04S
PITTSFIELD*    PTCLDY    43  23  45 S5        30.04S
$$

ILZ028>032-037-038-041>044-048-051>054-059>061-270100-
CENTRAL ILLINOIS

CITY           SKY/WX    TMP DP  RH WIND       PRES   REMARKS
PONTIAC        CLEAR     44  24  45 SW20G25   30.02R
BLOOMINGTON    CLEAR     40  24  53 SW14      30.04R
DECATUR        MOCLDY    42  23  46 SW13      30.07S
PEORIA         CLEAR     43  27  53 SW16      30.01S
6HR MIN TEMP:  43; 6HR MAX TEMP:  51;

LACON*         CLEAR     43  25  49 SW13G21   29.99R
LINCOLN*       CLEAR     42  28  55 S7        30.05R
SPRINGFIELD    CLEAR     43  22  43 S10       30.05S
6HR MIN TEMP:  43; 6HR MAX TEMP:  50;

TAYLORVILLE    CLOUDY    42  21  43 S9        30.07F
6HR MIN TEMP:  42; 6HR MAX TEMP:  46;

$$

ILZ033-039-045-046-055>057-062-063-270100-
EAST-CENTRAL ILLINOIS

CITY           SKY/WX    TMP DP  RH WIND       PRES   REMARKS
CHAMPAIGN      CLOUDY    44  21  40 SW15      30.07S
RANTOUL*       PTCLDY    43  24  46 SW13      30.06R
MATTOON        MOCLDY    44  23  43 S7        30.08S
PARIS*         CLOUDY    42  24  48 S8        30.11S
$$

ILZ079-100>102-270100-
SOUTHWEST ILLINOIS

CITY           SKY/WX    TMP DP  RH WIND       PRES   REMARKS
ALTON          CLOUDY    43  27  52 S18       30.07F
BELLEVILLE     CLOUDY    43  31  62 VRB5      30.08S
CAHOKIA*       CLOUDY    43  31  62 S6        30.08F
SPARTA*        CLOUDY    44  28  54 SW6       30.10F
$$

ILZ064>066-069>071-074>076-080>082-084>086-088>090-092>094-270100-
SOUTH-CENTRAL ILLINOIS

CITY           SKY/WX    TMP DP  RH WIND       PRES   REMARKS
CARBONDALE     CLOUDY    45  28  51 SW6       30.11F
6HR MIN TEMP:  45; 6HR MAX TEMP:  49;

CAIRO*         PTCLDY    48  26  40 E5        30.11S
EFFINGHAM*     CLOUDY    45  22  41 S3        30.11F
MARION         CLOUDY    48  25  40 SW6       30.12F
MT. VERNON     PTCLDY    44  29  55 W3        30.11F
CENTRALIA*     CLOUDY    43  32  65 SW7       30.10S
SALEM*         CLOUDY    46  24  40 S17G23    30.10F
METROPOLIS*    CLOUDY    49  24  38 CALM      30.11F
$$

ILZ067-068-072-073-078-083-087-091-270100-
SOUTHEAST ILLINOIS

CITY           SKY/WX    TMP DP  RH WIND       PRES   REMARKS
LAWRENCEVILLE  CLOUDY    45  22  40 S9        30.13S
FLORA*         CLOUDY    46  22  38 S7        30.11F
FAIRFIELD*     PTCLDY    46  25  43 SW3       30.11F
HARRISBURG*    CLOUDY    47  26  43 CALM      30.13F
ROBINSON*      CLOUDY    44  22  42 S5        30.13S
CARMI*         CLOUDY    47  26  43 S6        30.13S
$$

ABBREVIATIONS USED IN REMARKS
   TC - TEMPERATURE IN CELSIUS
  WCI - WIND CHILL INDEX
   HX - HEAT INDEX
  VSB - VISIBILITY
$$




USA.gov is the U.S. government's official web portal to all federal, state and local government web resources and services.